STARLINK-1504 (45746 NORAD) Tracking and Keplerian Element Data

This shows tracking and keplerian element data for the satellite.

Feedback or suggestion? Click here.




ElementValue
Catalog45746
NameSTARLINK-1504
Epoch Orbit427
Epoch Day185.50001157
Epoch Year2020
RAAN198.3236
Inclination53.001
Eccentricity0.0001204
Argument of Perigee94.9137
Mean Anonmoly256.8198
Mean Motion15.62673968
Decay Rate0.0009557
L11 45746U 20038S 20185.50001157 .00095570 00000-0 10405-2 0 9992
L22 45746 53.0010 198.3236 0001204 94.9137 256.8198 15.62673968 4274

Live tracking and technical data element details for STARLINK-1504 (NORAD 45746). STARLINK-1504 can be tracked NOW for your location showing map with azimuth and elevation plus other details from your city location.

Track the satellite on the map from your city or location and see movement details for azimuth, elevation, latitude, longitude, range, height, and movement on the map or in text.







IsCatalogInMostPopularTable: catalog: 45746, numindb: 4
Update: records affected: 1



GetName: 45746 STARLINK-1504

Hit Count: updated at: Sat, 04 Jul 2020 01:49:25 GMT